Regional Weather Roundup
Issued by NWS Newport/Morehead, NC

Current Version | Previous Version | Text Only | Print | Product List | Glossary On
Versions: 1 2 3 4 5 6 7 8 9 10 11 12 13 14 15 16 17 18 19 20 21 22 23 24 25 26 27 28 29 30 31 32 33 34 35 36 37 38 39 40 41 42 43 44 45 46 47 48 49 50
000
ASUS42 KMHX 280610
RWRMHX
WEATHER ROUNDUP FOR EASTERN NORTH CAROLINA
NATIONAL WEATHER SERVICE NEWPORT/MOREHEAD CITY NC
200 AM EDT THU AUG 28 2014

NOTE: "FAIR" INDICATES FEW OR NO CLOUDS BELOW 12,000 FEET
WITH NO SIGNIFICANT WEATHER AND/OR OBSTRUCTIONS TO VISIBILITY

NCZ015>017-031-032-045>047-102-103-280700-
NORTH COAST

CITY           SKY/WX    TMP DP  RH WIND       PRES   REMARKS
EDENTON        FAIR      68  66  94 CALM      29.93S
ELIZABETH CITY FAIR      66  64  93 SW3       29.91F
KITTY HAWK     FAIR      72  69  91 CALM      29.89F
MANTEO         FAIR      73  69  89 W3        29.91F

$$

NCZ045>047-081-094-103-104-280700-
CENTRAL COAST

CITY           SKY/WX    TMP DP  RH WIND       PRES   REMARKS
FRISCO         FAIR      73  69  87 NW8       29.92
SWANQUARTER      N/A     72 N/A N/A NW2       29.88F

$$

NCZ095-097-098-100-101-280700-
SOUTHERN COAST

CITY           SKY/WX    TMP DP  RH WIND       PRES   REMARKS
BEAUFORT       FAIR      72  68  87 W5        29.94F
CEDAR ISLAND     N/A     72 N/A N/A W2        29.97S
JACKSONVILLE   FAIR      66  62  87 W5        29.95F
NEWPORT        NOT AVBL
PINEY ISLAND   FAIR      75  73  93 SW6       29.93F
WILMINGTON     FAIR      67  65  93 CALM      29.97S


$$

NCZ011>013-027>030-043-044-078>080-089-090>093-098-280700-
COASTAL PLAIN

CITY           SKY/WX    TMP DP  RH WIND       PRES   REMARKS
AHOSKIE        FAIR      63  61  93 CALM      29.93F
CLINTON        FAIR      63  63  99 CALM      29.98S
ELIZABETHTOWN  FAIR      65  59  79 CALM      29.98F
GOLDSBORO      FAIR      67  67  98 CALM      29.95S
GREENVILLE     FAIR      66  63  88 CALM      29.96F
HAVELOCK       FAIR      67  64  90 W3        29.96S
KENANSVILLE    FAIR      61  59  94 CALM      29.97F
KINSTON        FAIR      66  62  87 CALM      29.96F
NEW BERN       FAIR      68  64  87 CALM      29.96S
RICHLANDS      NOT AVBL
ROANOKE RAPIDS NOT AVBL
ROCKY MOUNT    FAIR      65  63  93 S3        29.95F
WASHINGTON     FAIR      67  64  89 CALM      29.95S
WHITEVILLE     FAIR      65  61  88 CALM      29.98F

$$

AMZ130-135-150-152-154-156-158-170-250-252-270-ANZ085-086-088-633-658-670-280700-
MARINE OBSERVATIONS

STATION/POSITION TIME  TEMP    WIND        PRES    WAVE   SWELL
                       AIR SEA DIR/SP/G            HT/PER HT/PER
                 (UTC) (F)     (DEG/KT/KT) (MB)    (FT/S) (FT/S)
CHESAPEAKE LIGHT 0500   75     280/  8/  9 1013.2
BUOY 44014       0600   75 74  320/ 10/ 14 1011.3    8/12   8/12
DUCK             0600   73 77  270/  8/  9 1011.9
2E DUCK          0600                        N/A     5/11   3/11
OREGON INLET     0600   74 79  290/  5/  7 1012.7
BUOY 44095       0600      76                N/A     6/13   3/13
20E OREGON INLET NOT AVBL
HATTERAS CG      0600   76 80  310/ 11/ 11 1013.5
DIAMOND BUOY     0600   76     310/ 14/ 17 1012.5    7/11   7/11
CAPE LOOKOUT     0500   76     330/  7/  8 1014.2
BEAUFORT LAB     0600   74 79  320/  2/  4 1013.5
30 SE NEW RIVER  0600   80 80  330/  8/ 10 1014.6    5/ 8   5/ 8
5 SE WRIGHTSVILL 0600   74 81  290/  6/ 10   N/A
BUOY 41002       0457   80 81  320/ 12/ 14 1014.5    9/ 8   8/ 8
BUOY 41004       0600   80 82  280/  8/ 10 1015.5    6/10   7/10

$$


USA.gov is the U.S. government's official web portal to all federal, state and local government web resources and services.